Time,TemperatureF,DewpointF,PressureIn,WindDirection,WindDirectionDegrees,WindSpeedMPH,WindSpeedGustMPH,Humidity,HourlyPrecipIn,Conditions,Clouds,dailyrainin,SoftwareType,DateUTC
2013-01-31 00:03:00,56.0,55.0,29.47,West,276,1.0,3.0,98,0.03,,,0.39,,2013-01-31 05:03:00,
2013-01-31 00:11:00,56.0,55.0,29.47,West,276,1.0,3.0,98,0.03,,,0.39,,2013-01-31 05:11:00,
2013-01-31 00:22:00,56.0,55.0,29.45,ESE,114,1.0,4.0,98,0.01,,,0.39,,2013-01-31 05:22:00,
2013-01-31 00:32:00,56.0,55.0,29.45,ESE,114,1.0,4.0,98,0.01,,,0.39,,2013-01-31 05:32:00,
2013-01-31 00:42:00,56.0,55.0,29.44,East,92,3.0,6.0,98,0.01,,,0.39,,2013-01-31 05:42:00,
2013-01-31 00:52:00,56.0,55.0,29.44,East,92,3.0,6.0,98,0.01,,,0.39,,2013-01-31 05:52:00,
2013-01-31 01:01:00,56.0,55.0,29.44,East,92,3.0,6.0,98,0.01,,,0.39,,2013-01-31 06:01:00,
2013-01-31 01:11:00,56.0,55.0,29.44,East,92,3.0,6.0,98,0.01,,,0.39,,2013-01-31 06:11:00,
2013-01-31 09:03:00,57.0,55.0,28.95,WNW,300,2.0,9.0,94,0.00,,,0.61,,2013-01-31 14:03:00,
2013-01-31 09:11:00,57.0,55.0,28.95,WNW,300,2.0,9.0,94,0.00,,,0.61,,2013-01-31 14:11:00,
2013-01-31 09:22:00,57.0,54.0,28.94,SE,130,2.0,13.0,91,0.00,,,0.60,,2013-01-31 14:22:00,
2013-01-31 09:32:00,54.0,48.0,28.99,NW,314,5.0,17.0,79,0.04,,,0.64,,2013-01-31 14:32:00,
2013-01-31 09:42:00,54.0,48.0,28.99,NW,314,5.0,17.0,79,0.04,,,0.64,,2013-01-31 14:42:00,
2013-01-31 09:52:00,46.0,43.0,29.04,South,173,4.0,18.0,90,0.06,,,0.66,,2013-01-31 14:52:00,
2013-01-31 10:03:00,45.0,42.0,29.05,NW,319,4.0,13.0,90,0.06,,,0.66,,2013-01-31 15:03:00,
2013-01-31 10:12:00,45.0,42.0,29.05,NW,319,4.0,13.0,90,0.06,,,0.66,,2013-01-31 15:12:00,
2013-01-31 10:23:00,44.0,40.0,29.07,West,273,6.0,22.0,87,0.07,,,0.65,,2013-01-31 15:23:00,
2013-01-31 10:32:00,43.0,40.0,29.08,WNW,283,6.0,18.0,88,0.04,,,0.66,,2013-01-31 15:32:00,
2013-01-31 10:42:00,43.0,40.0,29.08,WNW,283,6.0,18.0,88,0.04,,,0.66,,2013-01-31 15:42:00,
2013-01-31 10:52:00,42.0,39.0,29.08,South,174,4.0,12.0,90,0.02,,,0.66,,2013-01-31 15:52:00,
2013-01-31 11:03:00,42.0,38.0,29.09,North,3,4.0,13.0,87,0.02,,,0.66,,2013-01-31 16:03:00,
2013-01-31 11:13:00,42.0,38.0,29.09,North,3,4.0,13.0,87,0.02,,,0.66,,2013-01-31 16:13:00,
2013-01-31 11:22:00,44.0,39.0,29.12,East,81,5.0,12.0,83,0.01,,,0.62,,2013-01-31 16:22:00,
2013-01-31 11:33:00,45.0,39.0,29.13,ESE,104,4.0,19.0,80,0.00,,,0.62,,2013-01-31 16:33:00,
2013-01-31 11:42:00,45.0,39.0,29.13,ESE,104,4.0,19.0,80,0.00,,,0.62,,2013-01-31 16:42:00,
2013-01-31 11:52:00,45.0,35.0,29.15,WSW,245,4.0,18.0,68,0.00,,,0.62,,2013-01-31 16:52:00,
2013-01-31 12:03:00,46.0,36.0,29.15,SE,136,4.0,15.0,69,0.00,,,0.62,,2013-01-31 17:03:00,
2013-01-31 12:13:00,46.0,36.0,29.15,SE,136,4.0,15.0,69,0.00,,,0.62,,2013-01-31 17:13:00,
2013-01-31 12:23:00,46.0,32.0,29.16,NNW,335,6.0,24.0,57,0.00,,,0.57,,2013-01-31 17:23:00,
2013-01-31 12:32:00,44.0,29.0,29.18,South,173,7.0,31.0,56,0.00,,,0.57,,2013-01-31 17:32:00,
2013-01-31 12:44:00,44.0,29.0,29.18,South,173,7.0,31.0,56,0.00,,,0.57,,2013-01-31 17:44:00,
2013-01-31 12:53:00,44.0,28.0,29.18,West,276,8.0,27.0,53,0.00,,,0.57,,2013-01-31 17:53:00,
2013-01-31 13:03:00,44.0,28.0,29.18,NW,305,6.0,22.0,52,0.00,,,0.57,,2013-01-31 18:03:00,
2013-01-31 13:12:00,44.0,28.0,29.19,SE,133,6.0,18.0,53,0.00,,,0.52,,2013-01-31 18:12:00,
2013-01-31 13:22:00,44.0,28.0,29.19,SE,133,6.0,18.0,53,0.00,,,0.52,,2013-01-31 18:22:00,
2013-01-31 13:32:00,45.0,29.0,29.20,SSE,150,3.0,16.0,54,0.00,,,0.52,,2013-01-31 18:32:00,
2013-01-31 13:43:00,45.0,29.0,29.20,SSE,150,3.0,16.0,54,0.00,,,0.52,,2013-01-31 18:43:00,
2013-01-31 13:52:00,43.0,25.0,29.21,West,275,6.0,26.0,48,0.00,,,0.52,,2013-01-31 18:52:00,
2013-01-31 14:02:00,44.0,26.0,29.23,West,263,5.0,16.0,48,0.00,,,0.52,,2013-01-31 19:02:00,
2013-01-31 14:12:00,44.0,26.0,29.23,West,263,5.0,16.0,48,0.00,,,0.52,,2013-01-31 19:12:00,
2013-01-31 14:22:00,43.0,23.0,29.24,East,97,5.0,18.0,45,0.00,,,0.47,,2013-01-31 19:22:00,
2013-01-31 14:33:00,43.0,23.0,29.25,West,280,5.0,15.0,45,0.00,,,0.47,,2013-01-31 19:33:00,
2013-01-31 14:42:00,43.0,23.0,29.25,West,280,5.0,15.0,45,0.00,,,0.47,,2013-01-31 19:42:00,
2013-01-31 14:52:00,43.0,23.0,29.26,West,270,4.0,12.0,44,0.00,,,0.47,,2013-01-31 19:52:00,
2013-01-31 15:02:00,44.0,23.0,29.27,WNW,282,6.0,14.0,43,0.00,,,0.47,,2013-01-31 20:02:00,
2013-01-31 15:12:00,44.0,23.0,29.27,WNW,282,6.0,14.0,43,0.00,,,0.47,,2013-01-31 20:12:00,
2013-01-31 15:22:00,41.0,20.0,29.29,WNW,294,8.0,20.0,42,0.00,,,0.45,,2013-01-31 20:22:00,
2013-01-31 15:32:00,40.0,20.0,29.31,WNW,301,7.0,18.0,44,0.00,,,0.45,,2013-01-31 20:32:00,
2013-01-31 15:42:00,40.0,20.0,29.31,WNW,301,7.0,18.0,44,0.00,,,0.45,,2013-01-31 20:42:00,
2013-01-31 15:52:00,40.0,20.0,29.32,East,84,6.0,21.0,44,0.00,,,0.45,,2013-01-31 20:52:00,
2013-01-31 16:02:00,39.0,19.0,29.33,WNW,302,4.0,13.0,45,0.00,,,0.45,,2013-01-31 21:02:00,
2013-01-31 16:12:00,39.0,19.0,29.33,WNW,302,4.0,13.0,45,0.00,,,0.45,,2013-01-31 21:12:00,
2013-01-31 16:22:00,39.0,21.0,29.34,WSW,246,2.0,17.0,48,0.00,,,0.45,,2013-01-31 21:22:00,
2013-01-31 16:32:00,38.0,20.0,29.35,NNW,339,5.0,16.0,47,0.00,,,0.45,,2013-01-31 21:32:00,
2013-01-31 16:42:00,38.0,20.0,29.35,NNW,339,5.0,16.0,47,0.00,,,0.45,,2013-01-31 21:42:00,
2013-01-31 16:52:00,37.0,20.0,29.36,NW,306,4.0,16.0,50,0.00,,,0.45,,2013-01-31 21:52:00,
2013-01-31 17:03:00,37.0,20.0,29.37,WSW,237,2.0,12.0,49,0.00,,,0.45,,2013-01-31 22:03:00,
2013-01-31 17:11:00,37.0,20.0,29.37,WSW,237,2.0,12.0,49,0.00,,,0.45,,2013-01-31 22:11:00,
2013-01-31 17:22:00,37.0,20.0,29.38,NW,321,5.0,14.0,50,0.00,,,0.45,,2013-01-31 22:22:00,
2013-01-31 17:33:00,36.0,20.0,29.39,SSE,153,6.0,17.0,51,0.00,,,0.45,,2013-01-31 22:33:00,
2013-01-31 17:42:00,36.0,20.0,29.39,SSE,153,6.0,17.0,51,0.00,,,0.45,,2013-01-31 22:42:00,
2013-01-31 17:52:00,35.0,20.0,29.40,NW,313,5.0,13.0,53,0.00,,,0.45,,2013-01-31 22:52:00,
2013-01-31 18:03:00,35.0,20.0,29.41,NW,318,2.0,12.0,54,0.00,,,0.45,,2013-01-31 23:03:00,
2013-01-31 18:12:00,35.0,20.0,29.41,NW,318,2.0,12.0,54,0.00,,,0.45,,2013-01-31 23:12:00,
2013-01-31 18:22:00,35.0,20.0,29.43,WNW,296,4.0,11.0,53,0.00,,,0.45,,2013-01-31 23:22:00,
2013-01-31 18:32:00,35.0,19.0,29.43,SE,138,4.0,25.0,51,0.00,,,0.45,,2013-01-31 23:32:00,
2013-01-31 18:42:00,35.0,19.0,29.43,SE,138,4.0,25.0,51,0.00,,,0.45,,2013-01-31 23:42:00,
2013-01-31 18:52:00,35.0,17.0,29.44,West,281,6.0,21.0,47,0.00,,,0.45,,2013-01-31 23:52:00,
2013-01-31 19:02:00,35.0,18.0,29.44,NW,307,4.0,24.0,49,0.00,,,0.45,,2013-02-01 00:02:00,
2013-01-31 19:11:00,35.0,18.0,29.44,NW,307,4.0,24.0,49,0.00,,,0.45,,2013-02-01 00:11:00,
2013-01-31 19:22:00,34.0,18.0,29.46,ESE,104,4.0,12.0,51,0.00,,,0.45,,2013-02-01 00:22:00,
2013-01-31 19:32:00,34.0,18.0,29.47,WNW,297,5.0,18.0,51,0.00,,,0.45,,2013-02-01 00:32:00,
2013-01-31 19:42:00,34.0,18.0,29.47,WNW,297,5.0,18.0,51,0.00,,,0.45,,2013-02-01 00:42:00,
2013-01-31 19:52:00,34.0,18.0,29.47,SW,219,4.0,11.0,52,0.00,,,0.45,,2013-02-01 00:52:00,
2013-01-31 20:01:00,34.0,18.0,29.48,ESE,110,9.0,22.0,51,0.00,,,0.45,,2013-02-01 01:01:00,
2013-01-31 20:11:00,33.0,17.0,29.50,WNW,294,3.0,12.0,52,0.00,,,0.45,,2013-02-01 01:11:00,
2013-01-31 20:22:00,33.0,17.0,29.50,WNW,294,3.0,12.0,52,0.00,,,0.45,,2013-02-01 01:22:00,
2013-01-31 20:32:00,32.0,16.0,29.49,NNE,22,4.0,20.0,51,0.00,,,0.45,,2013-02-01 01:32:00,
2013-01-31 20:42:00,32.0,16.0,29.49,NNE,22,4.0,20.0,51,0.00,,,0.45,,2013-02-01 01:42:00,
2013-01-31 20:52:00,32.0,16.0,29.51,WNW,302,3.0,13.0,51,0.00,,,0.45,,2013-02-01 01:52:00,
2013-01-31 21:02:00,32.0,16.0,29.51,SSE,159,6.0,17.0,52,0.00,,,0.45,,2013-02-01 02:02:00,
2013-01-31 21:11:00,32.0,16.0,29.51,SSE,159,6.0,17.0,52,0.00,,,0.45,,2013-02-01 02:11:00,
2013-01-31 21:21:00,31.0,17.0,29.52,West,276,3.0,11.0,56,0.00,,,0.45,,2013-02-01 02:21:00,
2013-01-31 21:32:00,31.0,17.0,29.53,NW,315,2.0,14.0,56,0.00,,,0.45,,2013-02-01 02:32:00,
2013-01-31 21:42:00,31.0,17.0,29.53,NW,315,2.0,14.0,56,0.00,,,0.45,,2013-02-01 02:42:00,
2013-01-31 21:52:00,30.0,15.0,29.54,ESE,110,3.0,9.0,54,0.00,,,0.45,,2013-02-01 02:52:00,
2013-01-31 22:02:00,30.0,16.0,29.54,WNW,284,3.0,23.0,55,0.00,,,0.45,,2013-02-01 03:02:00,
2013-01-31 22:12:00,30.0,16.0,29.54,WNW,284,3.0,23.0,55,0.00,,,0.45,,2013-02-01 03:12:00,
2013-01-31 22:22:00,30.0,17.0,29.54,NW,316,3.0,10.0,57,0.00,,,0.45,,2013-02-01 03:22:00,
2013-01-31 22:33:00,30.0,17.0,29.56,WNW,287,3.0,11.0,57,0.00,,,0.45,,2013-02-01 03:33:00,
2013-01-31 22:42:00,30.0,17.0,29.56,WNW,287,3.0,11.0,57,0.00,,,0.45,,2013-02-01 03:42:00,
2013-01-31 22:52:00,30.0,16.0,29.55,SE,124,3.0,13.0,55,0.00,,,0.45,,2013-02-01 03:52:00,
2013-01-31 23:02:00,30.0,16.0,29.56,WNW,298,3.0,12.0,55,0.00,,,0.45,,2013-02-01 04:02:00,
2013-01-31 23:11:00,30.0,16.0,29.56,WNW,298,3.0,12.0,55,0.00,,,0.45,,2013-02-01 04:11:00,
2013-01-31 23:22:00,29.0,15.0,29.56,SE,145,3.0,12.0,56,0.00,,,0.43,,2013-02-01 04:22:00,
2013-01-31 23:32:00,29.0,15.0,29.56,ESE,113,2.0,10.0,55,0.00,,,0.43,,2013-02-01 04:32:00,
2013-01-31 23:42:00,29.0,15.0,29.56,ESE,113,2.0,10.0,55,0.00,,,0.43,,2013-02-01 04:42:00,
2013-01-31 23:52:00,29.0,15.0,29.57,SE,138,4.0,13.0,55,0.00,,,0.43,,2013-02-01 04:52:00,